This is the latest recevied weather packets stored in our database for station/object F4WDE-10. If no packets are shown the sender has not sent any weather packets the latest 10 day(s).
| Time | Temp. | Humidity | Pressure | Rain* | Wind** | Luminosity | Snow |
|---|---|---|---|---|---|---|---|
| 1777991193 | 25.56° C | 49% | 958 hPa | - | - | - | - |
| 1777989391 | 25.56° C | 50% | 958 hPa | - | - | - | - |
| 1777988490 | 24.44° C | 52% | 958 hPa | - | - | - | - |
| 1777987589 | 24.44° C | 52% | 958 hPa | - | - | - | - |
| 1777986687 | 25° C | 51% | 958 hPa | - | - | - | - |
| 1777985786 | 21.67° C | 66% | 958 hPa | - | - | - | - |
| 1777984885 | 20° C | 73% | 958 hPa | - | - | - | - |
| 1777983984 | 20° C | 72% | 958 hPa | - | - | - | - |
| 1777983083 | 21.11° C | 69% | 958 hPa | - | - | - | - |
| 1777982182 | 21.11° C | 67% | 958 hPa | - | - | - | - |
| 1777981281 | 21.11° C | 70% | 958 hPa | - | - | - | - |
| 1777980380 | 20.56° C | 71% | 958 hPa | - | - | - | - |
| 1777979479 | 19.44° C | 76% | 958 hPa | - | - | - | - |
| 1777978578 | 19.44° C | 80% | 958 hPa | - | - | - | - |
| 1777977676 | 18.33° C | 85% | 958 hPa | - | - | - | - |
| 1777976775 | 18.33° C | 85% | 958 hPa | - | - | - | - |
| 1777976775 | 18.33° C | 85% | 958 hPa | - | - | - | - |
| 1777975874 | 18.33° C | 84% | 958 hPa | - | - | - | - |
| 1777974973 | 18.89° C | 81% | 958 hPa | - | - | - | - |
| 1777974071 | 18.33° C | 86% | 958 hPa | - | - | - | - |
| 1777973170 | 17.78° C | 91% | 958 hPa | - | - | - | - |
| 1777972268 | 17.78° C | 92% | 958 hPa | - | - | - | - |
| 1777971367 | 17.22° C | 94% | 958 hPa | - | - | - | - |
| 1777970466 | 16.11° C | 96% | 958 hPa | - | - | - | - |
| 1777969565 | 17.22° C | 90% | 958 hPa | - | - | - | - |
* Rain since midnight (hover to see other rain measurements)
** Current wind speed in m/s (hover to see current wind gust speed)